Location: Dammartin
(48.9032°N, 1.6195°E)
Time: 06:53:37
(UTC+00:00)

VELOX 1 - Visible Passes

Search period start: 03 December 2023 00:00
Search period end: 13 December 2023 00:00
Orbit: 610 x 625 km, 98.4° (Epoch: 02 December)

Date Brightness Start Highest point End Pass type
(mag) Time Alt. Az. Time Alt. Az. Time Alt. Az.
03 Dec ? 04:45:30 10° E 04:47:37 14° ENE 04:49:43 10° NNE visible
03 Dec ? 06:18:44 10° SSE 06:23:02 84° WSW 06:27:20 10° NNW visible
04 Dec ? 05:01:04 10° ESE 05:04:00 18° ENE 05:06:58 10° NNE visible
04 Dec ? 06:35:26 10° S 06:39:38 58° WSW 06:43:53 10° NNW visible
05 Dec ? 05:16:58 10° ESE 05:20:26 25° ENE 05:23:56 10° N visible
05 Dec ? 06:52:15 10° SSW 06:56:17 39° W 07:00:20 10° NNW visible
06 Dec ? 05:33:01 10° SE 05:36:53 34° ENE 05:40:46 10° N visible
07 Dec ? 05:49:15 10° SE 05:53:21 48° ENE 05:57:30 10° N visible
08 Dec ? 04:34:06 10° ENE 04:34:39 10° NE 04:35:10 10° NE visible
08 Dec ? 06:05:36 10° SSE 06:09:51 70° ENE 06:14:08 10° N visible
09 Dec ? 04:48:43 10° E 04:50:57 14° ENE 04:53:11 10° NNE visible
09 Dec ? 06:22:06 10° SSE 06:26:22 81° WSW 06:30:41 10° NNW visible
10 Dec ? 05:04:16 10° ESE 05:07:16 19° ENE 05:10:18 10° NNE visible
10 Dec ? 06:38:43 10° S 06:42:55 55° W 06:47:09 10° NNW visible
11 Dec ? 05:20:05 10° ESE 05:23:37 26° ENE 05:27:10 10° N visible
11 Dec ? 06:55:30 10° SSW 06:59:28 38° W 07:03:30 10° NNW visible
12 Dec ? 05:36:06 10° SE 05:39:59 35° ENE 05:43:55 10° N visible
